W5SDC Weather Reports


Display with metric or nautical units.
time (UTC)temp
F
wind
direction
speed
MPH
gust
MPH
rain 1hr
in
rain 24hr
in
rain mn
in
humidity
%
barometer
mb
20260502220018 74 2 7.0 11.0 0.00 0.01 0.00 45 1020.9
20260502215545 74 2 7.0 11.0 0.00 0.01 0.00 45 1020.9
20260502215031 74 30 6.0 8.0 0.00 0.02 0.00 45 1021.0
20260502214519 75 69 6.0 9.0 0.00 0.03 0.00 44 1021.0
20260502214046 75 23 5.0 8.0 0.00 0.05 0.00 45 1021.0
20260502213533 75 69 6.0 9.0 0.00 0.05 0.00 44 1021.2
20260502213041 75 10 6.0 10.0 0.00 0.05 0.00 44 1021.2
20260502212608 75 24 5.0 8.0 0.00 0.05 0.00 43 1021.4
20260502212036 75 56 6.0 8.0 0.00 0.05 0.00 43 1021.4
20260502211523 75 9 6.0 8.0 0.00 0.06 0.00 43 1021.5
20260502211029 75 68 7.0 11.0 0.00 0.06 0.00 43 1021.6
20260502210517 74 346 7.0 9.0 0.00 0.06 0.00 42 1021.7
20260502210024 74 339 9.0 11.0 0.00 0.06 0.00 43 1021.8
20260502205531 75 61 6.0 8.0 0.00 0.06 0.00 43 1021.8
20260502205019 75 11 5.0 8.0 0.00 0.06 0.00 43 1021.9
20260502204526 75 356 6.0 8.0 0.00 0.06 0.00 43 1022.0
20260502204033 73 97 4.0 9.0 0.00 0.06 0.00 43 1022.0
20260502203521 73 1 6.0 9.0 0.00 0.06 0.00 45 1022.0
20260502203027 75 18 7.0 12.0 0.00 0.06 0.00 44 1022.0
20260502202515 75 20 4.0 7.0 0.00 0.06 0.00 45 1022.1
20260502202022 74 347 6.0 10.0 0.00 0.06 0.00 45 1022.2
20260502201529 74 6 8.0 11.0 0.00 0.06 0.00 44 1022.2
20260502201017 74 321 7.0 11.0 0.00 0.07 0.00 43 1022.2
20260502200523 74 336 8.0 14.0 0.00 0.07 0.00 44 1022.2
20260502200030 74 9 6.0 9.0 0.00 0.07 0.00 45 1022.2
20260502195539 74 33 6.0 9.0 0.00 0.07 0.00 45 1022.2
20260502195025 74 346 7.0 9.0 0.00 0.07 0.00 44 1022.2
20260502194532 74 342 6.0 9.0 0.00 0.07 0.00 47 1022.2
20260502194020 74 9 5.0 11.0 0.00 0.07 0.00 48 1022.2
20260502193527 74 25 7.0 9.0 0.00 0.08 0.00 48 1022.2
20260502193015 73 356 7.0 11.0 0.00 0.09 0.00 50 1022.2
20260502192521 74 326 7.0 10.0 0.00 0.10 0.00 50 1022.2
20260502192028 73 87 4.0 7.0 0.00 0.11 0.00 49 1022.2
20260502191516 72 2 8.0 14.0 0.00 0.11 0.00 50 1022.2
20260502191023 73 343 8.0 12.0 0.00 0.11 0.00 50 1022.2
20260502190529 74 56 4.0 7.0 0.00 0.11 0.00 52 1022.2
20260502190018 72 340 6.0 10.0 0.00 0.11 0.00 53 1022.4
20260502185605 73 329 7.0 10.0 0.00 0.11 0.00 53 1022.4
20260502185031 73 318 6.0 10.0 0.00 0.11 0.00 54 1022.6
20260502184520 71 354 5.0 9.0 0.00 0.11 0.00 54 1022.7
20260502184106 71 329 8.0 11.0 0.00 0.11 0.00 55 1022.7
20260502183532 72 330 9.0 11.0 0.00 0.11 0.00 55 1022.7
20260502183021 72 334 8.0 11.0 0.00 0.11 0.00 54 1022.7
20260502182527 72 3 6.0 9.0 0.00 0.12 0.00 55 1022.9
20260502182016 72 333 5.0 9.0 0.00 0.14 0.00 55 1023.0
20260502181543 71 336 5.0 7.0 0.00 0.17 0.00 56 1023.1
20260502181029 70 3 7.0 11.0 0.00 0.20 0.00 56 1023.3
20260502180517 71 352 7.0 9.0 0.00 0.24 0.00 57 1023.3
20260502164040 69 322 7.0 10.0 0.00 0.41 0.00 61 1024.0
20260502163527 68 308 6.0 9.0 0.00 0.41 0.00 62 1024.1
20260502163033 67 342 8.0 11.0 0.00 0.41 0.00 62 1024.1
20260502162521 67 338 8.0 11.0 0.00 0.41 0.00 62 1024.1
20260502162049 67 323 7.0 9.0 0.00 0.41 0.00 63 1024.1
20260502161516 67 342 6.0 10.0 0.00 0.41 0.00 62 1024.1
20260502161023 67 348 6.0 9.0 0.00 0.41 0.00 62 1024.1
20260502160529 66 350 7.0 10.0 0.00 0.41 0.00 62 1024.1
20260502152015 65 335 6.0 9.0 0.00 0.48 0.00 67 1024.1
20260502151522 65 325 6.0 8.0 0.00 0.49 0.00 67 1024.0
20260502151029 64 316 6.0 8.0 0.00 0.50 0.00 69 1023.9
20260502150537 65 330 5.0 7.0 0.00 0.51 0.00 69 1023.9
20260502130529 55 321 4.0 6.0 0.00 0.77 0.00 89 1022.9
20260502123532 51 322 2.0 3.0 0.00 0.77 0.00 98 1022.4
20260502123041 50 310 3.0 4.0 0.00 0.77 0.00 99 1022.4
20260502122527 49 330 2.0 3.0 0.00 0.77 0.00 99 1022.2
20260502122016 48 314 2.0 3.0 0.00 0.77 0.00 99 1022.2
20260502121522 48 324 1.0 2.0 0.00 0.77 0.00 99 1022.1
20260502121029 47 315 1.0 3.0 0.00 0.77 0.00 99 1022.0
20260502120517 47 302 1.0 2.0 0.00 0.77 0.00 99 1022.0
20260502115530 47 294 1.0 2.0 0.00 0.77 0.00 99 1021.7
20260502115019 47 304 1.0 3.0 0.00 0.79 0.00 99 1021.6
20260502114032 46 284 1.0 2.0 0.00 0.81 0.00 99 1021.5
20260502113520 46 0.0 0.0 0.00 0.81 0.00 99 1021.4
20260502113027 47 0.0 0.0 0.00 0.81 0.00 99 1021.4
20260502112515 47 0.0 0.0 0.00 0.81 0.00 99 1021.4
20260502112022 47 0.0 0.0 0.00 0.83 0.00 99 1021.4
20260502111528 47 0.0 1.0 0.00 0.83 0.00 99 1021.4
20260502111017 47 265 1.0 2.0 0.00 0.85 0.00 99 1021.2
20260502110523 48 300 1.0 4.0 0.00 0.86 0.00 99 1021.2
20260502110131 48 210 2.0 4.0 0.00 0.87 0.00 99 1021.0
20260502105518 48 0.0 0.0 0.00 0.89 0.00 99 1021.0
20260502105025 48 281 1.0 3.0 0.00 0.90 0.00 99 1020.8
20260502104552 48 270 0.0 3.0 0.00 0.90 0.00 99 1020.6
20260502104020 48 315 1.0 2.0 0.00 0.91 0.00 99 1020.5
20260502103526 48 305 3.0 3.0 0.00 0.91 0.00 99 1020.3
20260502103033 49 308 2.0 4.0 0.00 0.91 0.00 99 1020.3
20260502102521 49 323 3.0 4.0 0.00 0.93 0.00 99 1020.2
20260502102028 49 321 3.0 4.0 0.00 0.95 0.00 99 1020.2
20260502101516 49 342 3.0 5.0 0.00 0.99 0.00 99 1020.1
20260502101023 49 329 4.0 5.0 0.00 0.99 0.00 99 1020.0
20260502100529 49 332 5.0 8.0 0.00 1.00 0.00 99 1020.0
20260502091522 49 346 5.0 8.0 0.00 1.04 0.00 99 1019.7
20260502091029 49 334 5.0 7.0 0.00 1.04 0.00 99 1019.6
20260502090517 50 347 5.0 7.0 0.00 1.04 0.00 99 1019.6
20260502071516 50 325 5.0 6.0 0.00 1.08 0.00 99 1019.6
20260502071123 50 338 4.0 5.0 0.00 1.08 0.00 99 1019.6
20260502070530 50 342 5.0 7.0 0.00 1.08 0.00 99 1019.6
20260502070018 50 339 6.0 8.0 0.00 1.08 0.00 99 1019.6
20260502065545 50 328 4.0 6.0 0.00 1.08 0.00 99 1019.6
20260502065031 50 345 4.0 6.0 0.00 1.08 0.00 99 1019.5
20260502064519 51 335 4.0 5.0 0.00 1.08 0.00 99 1019.5
20260502064026 51 346 4.0 5.0 0.00 1.08 0.00 99 1019.5
20260502063613 51 338 4.0 6.0 0.00 1.08 0.00 99 1019.5
20260502063021 51 357 4.0 5.0 0.00 1.08 0.00 99 1019.5
20260502062528 51 333 3.0 4.0 0.00 1.08 0.00 99 1019.5
20260502062016 51 348 4.0 4.0 0.00 1.08 0.00 99 1019.5
20260502061524 51 340 3.0 4.0 0.00 1.08 0.00 99 1019.5
20260502061049 51 353 3.0 5.0 0.00 1.08 0.00 99 1019.6
20260502060518 51 356 4.0 5.0 0.00 1.08 0.00 99 1019.6
20260502060024 51 343 5.0 6.0 0.00 1.08 0.00 99 1019.6
20260502055551 51 315 5.0 6.0 0.00 1.08 0.00 99 1019.6
20260502055019 51 342 4.0 7.0 0.00 1.08 0.00 99 1019.6
20260502054546 51 343 4.0 7.0 0.00 1.08 0.00 99 1019.6
20260502054032 51 352 5.0 7.0 0.00 1.08 0.00 99 1019.6
20260502053521 51 338 4.0 5.0 0.00 1.08 0.00 99 1019.5
20260502053027 51 353 4.0 5.0 0.00 1.08 0.00 99 1019.5
20260502052516 51 13 4.0 5.0 0.00 1.09 0.00 99 1019.4
20260502052042 51 2 4.0 5.0 0.00 1.09 0.00 99 1019.4
20260502051529 51 346 3.0 5.0 0.00 1.09 0.00 99 1019.4
20260502051158 51 334 3.0 4.0 0.00 1.09 0.00 99 1019.5
20260502050544 52 329 3.0 4.0 0.00 1.09 0.00 99 1019.5
20260502050051 52 351 3.0 4.0 0.00 1.09 0.00 99 1019.1
20260502045519 52 336 3.0 5.0 0.00 1.09 1.09 99 1019.1
20260502045025 52 349 3.0 4.0 0.00 1.09 1.09 99 1019.2
20260502044532 52 6 3.0 4.0 0.00 1.09 1.09 99 1019.3
20260502044040 52 360 3.0 4.0 0.00 1.09 1.09 99 1019.3
20260502043527 52 337 2.0 4.0 0.00 1.10 1.09 99 1019.4
20260502043015 52 330 3.0 3.0 0.00 1.10 1.09 99 1019.4
20260502042522 52 296 2.0 3.0 0.00 1.10 1.09 99 1019.2
20260502042029 53 333 3.0 4.0 0.00 1.10 1.09 99 1019.1
20260502041537 53 342 3.0 4.0 0.00 1.10 1.09 99 1019.1
20260502041023 53 322 3.0 5.0 0.00 1.10 1.09 99 1019.1
20260502040550 53 334 4.0 4.0 0.00 1.10 1.09 99 1019.1
20260502040018 53 339 4.0 5.0 0.00 1.10 1.09 99 1019.2
20260502035525 53 336 3.0 5.0 0.00 1.11 1.09 99 1019.3
20260502035031 53 343 4.0 5.0 0.00 1.11 1.09 99 1019.3
20260502034540 53 345 4.0 5.0 0.00 1.11 1.09 99 1019.4
20260502034026 53 340 5.0 6.0 0.00 1.11 1.09 99 1019.4
20260502033533 53 343 4.0 6.0 0.00 1.12 1.09 99 1019.3
20260502033021 53 326 4.0 6.0 0.00 1.12 1.09 99 1019.3
20260502032528 53 6 6.0 8.0 0.00 1.13 1.09 99 1019.2
20260502032016 53 354 6.0 9.0 0.00 1.13 1.09 99 1019.1
20260502031523 53 350 6.0 8.0 0.00 1.13 1.09 99 1019.1
20260502031029 53 349 6.0 8.0 0.00 1.14 1.09 99 1018.9
20260502030518 53 357 6.0 9.0 0.00 1.16 1.09 99 1018.9
20260502030024 53 350 7.0 9.0 0.00 1.18 1.09 99 1018.9
20260502025531 53 3 7.0 8.0 0.00 1.20 1.09 99 1018.9
20260502025019 53 346 8.0 10.0 0.00 1.23 1.09 99 1018.7
20260502024545 53 352 7.0 10.0 0.00 1.28 1.09 99 1018.6
20260502024032 53 349 7.0 9.0 0.00 1.34 1.09 99 1018.6
20260502023521 53 336 7.0 10.0 0.00 1.34 1.09 99 1018.5
20260502023027 53 342 6.0 8.0 0.00 1.34 1.09 99 1018.5
20260502022515 53 360 6.0 9.0 0.00 1.34 1.09 99 1018.4
20260502022042 53 350 7.0 8.0 0.00 1.34 1.09 99 1018.4
20260502021528 53 339 7.0 11.0 0.00 1.34 1.09 99 1018.2
20260502021037 53 351 7.0 9.0 0.00 1.34 1.09 99 1017.9
20260502020523 53 327 7.0 9.0 0.00 1.34 1.09 99 1017.9
20260502020030 53 352 6.0 9.0 0.00 1.34 1.09 99 1017.6
20260502015518 53 346 6.0 7.0 0.00 1.34 1.09 99 1017.6
20260502015025 53 346 8.0 11.0 0.00 1.34 1.09 99 1017.5
20260502014532 53 345 5.0 6.0 0.00 1.34 1.09 99 1017.5
20260502014020 53 351 6.0 9.0 0.00 1.34 1.09 99 1017.4
20260502013526 53 348 6.0 10.0 0.00 1.34 1.09 99 1017.2
20260502013033 53 325 6.0 8.0 0.00 1.34 1.09 99 1017.2
20260502012541 53 343 6.0 8.0 0.00 1.34 1.09 99 1017.1
20260502012028 53 4 6.0 9.0 0.00 1.34 1.09 99 1017.1
20260502011516 53 44 5.0 8.0 0.00 1.34 1.09 99 1017.0
20260502011023 53 21 6.0 8.0 0.00 1.34 1.09 99 1016.9
20260502010529 53 349 8.0 10.0 0.00 1.34 1.09 99 1016.9
20260502010018 53 357 7.0 10.0 0.00 1.34 1.09 99 1016.7
20260502005544 53 338 8.0 10.0 0.00 1.34 1.09 99 1016.7
20260502005031 53 354 7.0 11.0 0.00 1.34 1.09 99 1016.4
20260502004519 53 348 6.0 9.0 0.00 1.34 1.09 99 1016.3
20260502004046 53 333 7.0 10.0 0.00 1.34 1.09 99 1016.3
20260502003532 53 1 9.0 12.0 0.00 1.34 1.09 99 1016.3
20260502003020 53 3 8.0 11.0 0.00 1.34 1.09 99 1016.3
20260502002527 53 353 9.0 12.0 0.00 1.34 1.09 99 1016.2
20260502002015 53 348 9.0 13.0 0.00 1.34 1.09 99 1016.2
20260502001542 53 353 8.0 11.0 0.00 1.34 1.09 99 1016.0
20260502001029 53 8 9.0 12.0 0.00 1.34 1.09 99 1015.8
20260502000517 53 33 9.0 11.0 0.00 1.34 1.09 99 1015.8
20260502000043 53 18 9.0 15.0 0.00 1.34 1.09 99 1015.8
20260501235550 53 344 12.0 20.0 0.00 1.34 1.09 99 1015.8
20260501235019 53 8 10.0 15.0 0.00 1.34 1.09 99 1016.0
20260501234525 53 1 10.0 17.0 0.00 1.34 1.09 99 1016.2
20260501234032 53 341 11.0 17.0 0.00 1.34 1.09 99 1016.0
20260501233520 53 341 13.0 19.0 0.00 1.34 1.09 99 1015.5
20260501233027 53 342 11.0 17.0 0.00 1.34 1.09 99 1015.5
20260501232515 53 335 11.0 13.0 0.00 1.34 1.09 99 1015.5
20260501232022 54 324 13.0 17.0 0.00 1.34 1.09 99 1015.5
20260501231528 54 352 11.0 15.0 0.01 1.34 1.09 99 1015.5
20260501231017 54 349 8.0 12.0 0.01 1.34 1.09 99 1015.5
20260501230523 54 341 9.0 16.0 0.01 1.34 1.09 99 1015.5
20260501230030 55 329 8.0 11.0 0.01 1.34 1.09 99 1015.3
20260501225518 55 338 8.0 12.0 0.01 1.34 1.09 99 1015.3
20260501225025 55 344 9.0 13.0 0.02 1.34 1.09 99 1015.2
20260501224531 55 1 10.0 14.0 0.03 1.34 1.09 99 1015.1
20260501224019 55 348 11.0 17.0 0.05 1.34 1.09 99 1015.1
20260501223526 55 340 12.0 17.0 0.05 1.34 1.09 99 1015.0
20260501223033 55 340 13.0 16.0 0.05 1.34 1.09 99 1015.0
20260501222541 55 350 12.0 16.0 0.05 1.34 1.09 99 1015.1
20260501222027 55 333 13.0 18.0 0.05 1.34 1.09 99 1015.1
20260501221516 55 340 12.0 15.0 0.05 1.33 1.08 99 1015.1
20260501221023 55 338 11.0 18.0 0.05 1.33 1.08 99 1014.9
20260501220529 55 8 13.0 17.0 0.05 1.33 1.08 99 1014.9